Home   Weather   Sterling Heights   Past weeks
Flag for USA

Past Weather in Sterling Heights, Michigan, USA — Yesterday and Last 2 Weeks

Now
12 °F

Clear.


Feels Like: 12 °F
Forecast: 32 / 4 °F
Wind: No wind

Location: Selfridge Air National Guard Base

Current Time: Jan 21, 2019 at 7:05:45 pm

Latest Report: Jan 21, 2019 at 5:56 pm


Visibility: 10 mi

Pressure: 30.62 "Hg

Humidity: 61%

Dew Point: 1 °F

Location of Sterling HeightsLocation

Past Weather in Sterling Heights — Graph

°F

Sterling Heights Temperature Yesterday

Maximum temperature yesterday: 18 °F (at 12:56 am)
Minimum temperature yesterday: -1 °F (at 11:56 pm)
Average temperature yesterday: 9 °F

High & Low Weather Summary for the Past Weeks

 TemperatureHumidityPressure
High54 °F (Jan 7, 10:14 pm)100% (Jan 7, 5:18 am)30.60 "Hg (Jan 7, 5:18 am)
Low-4 °F (Jan 21, 5:56 am)52% (Jan 11, 1:56 pm)29.62 "Hg (Jan 8, 3:38 pm)
Average26 °F82%30.16 "Hg
* Reported Jan 6 4:56 pm — Jan 21 4:56 pm, Sterling Heights. Weather by CustomWeather, © 2019

Note: Actual official high and low records may vary slightly from our data, if they occured in-between our weather recording intervals... More about our weather records

Advertising

Sterling Heights Weather History for the Previous 24 Hours

Scroll right to see more
 ConditionsComfort  
Time TempWeatherWind HumidityBarometerVisibility
4:56 pm
Mon, Jan 21
14 °FSunny.5 mph60%30.59 "Hg10 mi
3:56 pm15 °FSunny.5 mph57%30.59 "Hg10 mi
2:56 pm15 °FPassing clouds.7 mph56%30.59 "Hg10 mi
1:56 pm15 °FScattered clouds.8 mph58%30.59 "Hg10 mi
12:56 pm12 °FPartly sunny.10 mph59%30.59 "Hg10 mi
11:56 am9 °FOvercast.13 mph61%30.60 "Hg10 mi
10:56 am6 °FPartly sunny.13 mph63%30.60 "Hg10 mi
9:56 am2 °FSunny.13 mph66%30.58 "Hg10 mi
8:56 am-2 °FSunny.12 mph71%30.56 "Hg10 mi
7:56 am-4 °FSunny.8 mph74%30.53 "Hg10 mi
6:56 am-4 °FClear.10 mph72%30.50 "Hg10 mi
5:56 am-4 °FClear.10 mph72%30.47 "Hg10 mi
4:56 am-4 °FClear.10 mph70%30.45 "Hg10 mi
3:56 am-4 °FClear.12 mph68%30.43 "Hg10 mi
2:56 am-3 °FClear.10 mph65%30.42 "Hg10 mi
1:56 am-2 °FClear.12 mph63%30.40 "Hg10 mi
12:56 am-2 °FClear.13 mph61%30.38 "Hg10 mi
11:56 pm
Sun, Jan 20
-1 °FClear.14 mph58%30.38 "Hg10 mi
10:55 pm0 °FClear.13 mph58%30.36 "Hg12 mi
9:55 pm1 °FClear.12 mph57%30.35 "Hg12 mi
8:57 pm2 °FClear.16 mph61%30.34 "Hg12 mi
7:57 pm3 °FClear.10 mph65%30.34 "Hg12 mi
Weather by CustomWeather, © 2019

See weather overview